Date String (YYYY-MM-DD hh:mm:ss) UTC,Instrument flags,Ambient pressure (hPa),Sample flow (lpm),Bypass flow (lpm),Sample temperature (°C),Ambient temperature (°C),ASC tube jacket temperature (°C),LED temperature (°C),Box temperature (°C),Sample RH (%),Span deviation,Mass concentration (μg/m³),Mass concentration (μg/m³),Mass concentration (μg/m³)
DateTimeUTC,F1_M11,P_M11,Q1_M11,Q2_M11,T1_M11,T2_M11,T3_M11,T4_M11,T5_M11,U1_M11,ZSPAN_M11,X2_M11,X0_M11,X1_M11
2021-12-12 14:00:00,,0819.6,5.00,0.00,22.6,21.9,00.0,31.6,24.3,08.9,0000.0,0003.56,0009.18,0002.58
2021-12-12 14:01:00,,0819.7,5.02,0.00,22.6,21.8,00.0,31.6,24.3,08.8,0000.0,0003.52,0009.03,0002.56
2021-12-12 14:02:00,,0819.5,4.99,0.00,22.5,21.8,00.0,31.6,24.2,09.0,0000.0,0003.47,0009.00,0002.53
2021-12-12 14:03:00,,0819.5,5.00,0.00,22.5,21.7,00.0,31.5,24.1,09.0,0000.0,0003.47,0009.07,0002.49
2021-12-12 14:04:00,,0819.4,5.01,0.00,22.5,21.7,00.0,31.5,24.1,09.0,0000.0,0003.47,0009.02,0002.51
2021-12-12 14:05:00,,0819.2,5.00,0.00,22.4,21.7,00.0,31.5,24.1,08.9,0000.0,0003.49,0008.02,0002.57
2021-12-12 14:06:00,,0819.2,5.00,0.00,22.4,21.7,00.0,31.5,24.2,08.9,0000.0,0003.56,0008.12,0002.65
2021-12-12 14:07:00,,0819.3,4.99,0.00,22.5,21.7,00.0,31.5,24.2,09.0,0000.0,0003.58,0008.20,0002.68
2021-12-12 14:08:00,,0819.4,5.01,0.00,22.5,21.7,00.0,31.5,24.2,08.9,0000.0,0003.58,0008.91,0002.62
2021-12-12 14:09:00,,0819.4,5.00,0.00,22.5,21.7,00.0,31.5,24.2,09.1,0000.0,0003.50,0008.82,0002.52
2021-12-12 14:10:00,,0819.5,5.01,0.00,22.5,21.7,00.0,31.5,24.2,09.3,0000.0,0003.39,0008.45,0002.44
2021-12-12 14:11:00,,0819.4,5.00,0.00,22.4,21.7,00.0,31.5,24.2,09.3,0000.0,0003.34,0008.29,0002.41
2021-12-12 14:12:00,,0819.4,5.01,0.00,22.5,21.7,00.0,31.5,24.2,09.2,0000.0,0003.33,0008.27,0002.33
2021-12-12 14:13:00,,0819.4,4.99,0.00,22.5,21.7,00.0,31.5,24.2,09.2,0000.0,0003.28,0008.11,0002.26
2021-12-12 14:14:00,,0819.6,5.01,0.00,22.5,21.7,00.0,31.5,24.2,09.0,0000.0,0003.21,0007.45,0002.21
2021-12-12 14:15:00,,0819.7,4.99,0.00,22.5,21.7,00.0,31.5,24.2,08.8,0000.0,0003.22,0007.21,0002.22
2021-12-12 14:16:00,,0819.6,5.00,0.00,22.5,21.7,00.0,31.4,24.2,08.9,0000.0,0003.21,0007.01,0002.20
2021-12-12 14:17:00,,0819.4,5.00,0.00,22.5,21.7,00.0,31.5,24.2,08.9,0000.0,0003.23,0007.96,0002.21
2021-12-12 14:18:00,,0819.4,5.00,0.00,22.5,21.7,00.0,31.4,24.2,08.9,0000.0,0003.24,0007.95,0002.22
2021-12-12 14:19:00,,0819.4,5.01,0.00,22.5,21.7,00.0,31.4,24.2,09.1,0000.0,0003.22,0007.23,0002.19
2021-12-12 14:20:00,,0819.4,5.00,0.00,22.5,21.7,00.0,31.4,24.2,09.2,0000.0,0003.19,0007.26,0002.17
2021-12-12 14:21:00,,0819.4,5.01,0.00,22.5,21.7,00.0,31.5,24.2,09.0,0000.0,0003.24,0007.87,0002.20
2021-12-12 14:22:00,,0819.4,5.01,0.00,22.5,21.7,00.0,31.4,24.2,09.0,0000.0,0003.29,0008.42,0002.25
2021-12-12 14:23:00,,0819.5,4.99,0.00,22.4,21.7,00.0,31.4,24.2,08.8,0000.0,0003.29,0008.91,0002.33
2021-12-12 14:24:00,,0819.6,5.00,0.00,22.4,21.7,00.0,31.4,24.2,08.8,0000.0,0003.33,0009.09,0002.40
2021-12-12 14:25:00,,0819.7,4.99,0.00,22.5,21.7,00.0,31.4,24.2,08.8,0000.0,0003.43,0009.40,0002.44
2021-12-12 14:26:00,,0819.7,5.01,0.00,22.4,21.7,00.0,31.4,24.2,08.8,0000.0,0003.44,0010.06,0002.43
2021-12-12 14:27:00,,0819.7,5.01,0.00,22.4,21.7,00.0,31.4,24.2,08.7,0000.0,0003.48,0010.17,0002.44
2021-12-12 14:28:00,,0819.7,4.99,0.00,22.4,21.7,00.0,31.4,24.2,08.7,0000.0,0003.49,0010.14,0002.46
2021-12-12 14:29:00,,0819.6,5.00,0.00,22.4,21.7,00.0,31.4,24.2,08.7,0000.0,0003.55,0010.55,0002.50
2021-12-12 14:30:00,,0819.6,5.00,0.00,22.4,21.7,00.0,31.4,24.2,08.7,0000.0,0003.67,0010.96,0002.56
2021-12-12 14:31:00,,0819.7,4.99,0.00,22.4,21.7,00.0,31.4,24.2,08.7,0000.0,0003.81,0011.15,0002.66
2021-12-12 14:32:00,,0819.6,5.01,0.00,22.4,21.7,00.0,31.4,24.1,08.7,0000.0,0003.92,0010.99,0002.74
2021-12-12 14:33:00,,0819.6,5.00,0.00,22.4,21.7,00.0,31.4,24.2,08.7,0000.0,0003.97,0010.77,0002.79
2021-12-12 14:34:00,,0819.5,4.99,0.00,22.4,21.7,00.0,31.4,24.2,08.7,0000.0,0004.00,0010.96,0002.81
2021-12-12 14:35:00,,0819.6,5.01,0.00,22.4,21.7,00.0,31.4,24.2,08.7,0000.0,0004.00,0011.02,0002.81
2021-12-12 14:36:00,,0819.6,4.99,0.00,22.4,21.7,00.0,31.4,24.2,08.7,0000.0,0003.98,0011.39,0002.83
2021-12-12 14:37:00,,0819.5,5.01,0.00,22.4,21.7,00.0,31.4,24.2,08.6,0000.0,0003.98,0011.28,0002.86
2021-12-12 14:38:00,,0819.5,4.99,0.00,22.5,21.7,00.0,31.4,24.2,08.5,0000.0,0003.99,0011.65,0002.89
2021-12-12 14:39:00,,0819.6,5.01,0.00,22.5,21.7,00.0,31.4,24.2,08.5,0000.0,0004.03,0012.12,0002.92
2021-12-12 14:40:00,,0819.5,4.99,0.00,22.5,21.7,00.0,31.4,24.2,08.4,0000.0,0004.05,0011.65,0002.95
2021-12-12 14:41:00,,0819.6,5.00,0.00,22.5,21.7,00.0,31.4,24.2,08.4,0000.0,0004.05,0011.91,0002.98
2021-12-12 14:42:00,,0819.7,5.00,0.00,22.5,21.7,00.0,31.4,24.2,08.4,0000.0,0004.01,0012.83,0002.99
2021-12-12 14:43:00,,0819.7,5.00,0.00,22.5,21.7,00.0,31.4,24.2,08.4,0000.0,0004.00,0013.82,0003.00
2021-12-12 14:44:00,,0819.6,4.99,0.00,22.5,21.7,00.0,31.4,24.2,08.4,0000.0,0003.98,0013.82,0003.02
2021-12-12 14:45:00,,0819.5,5.01,0.00,22.5,21.7,00.0,31.4,24.2,08.3,0000.0,0004.00,0014.31,0003.04
2021-12-12 14:46:00,,0819.5,4.99,0.00,22.5,21.7,00.0,31.4,24.2,08.3,0000.0,0004.04,0014.78,0003.08
2021-12-12 14:47:00,,0819.6,5.01,0.00,22.5,21.7,00.0,31.4,24.2,08.3,0000.0,0004.07,0014.65,0003.12
2021-12-12 14:48:00,,0819.7,5.00,0.00,22.5,21.7,00.0,31.4,24.2,08.3,0000.0,0004.11,0014.17,0003.14
2021-12-12 14:49:00,,0819.6,4.99,0.00,22.5,21.7,00.0,31.4,24.2,08.3,0000.0,0004.15,0013.74,0003.15
2021-12-12 14:50:00,,0819.5,5.00,0.00,22.5,21.7,00.0,31.4,24.2,08.3,0000.0,0004.15,0013.09,0003.16
2021-12-12 14:51:00,,0819.5,5.00,0.00,22.5,21.7,00.0,31.4,24.2,08.4,0000.0,0004.08,0012.52,0003.13
2021-12-12 14:52:00,,0819.4,4.99,0.00,22.5,21.7,00.0,31.4,24.2,08.4,0000.0,0003.95,0012.01,0003.08
2021-12-12 14:53:00,,0819.5,5.00,0.00,22.5,21.7,00.0,31.4,24.2,08.4,0000.0,0003.89,0010.79,0003.03
2021-12-12 14:54:00,,0819.5,5.01,0.00,22.4,21.7,00.0,31.4,24.2,08.4,0000.0,0003.95,0009.89,0003.01
2021-12-12 14:55:00,,0819.6,4.98,0.00,22.4,21.6,00.0,31.4,24.1,08.4,0000.0,0003.97,0010.34,0003.04
2021-12-12 14:56:00,,0819.6,5.01,0.00,22.4,21.6,00.0,31.4,24.1,08.3,0000.0,0003.95,0010.19,0003.05
2021-12-12 14:57:00,,0819.5,5.00,0.00,22.4,21.6,00.0,31.4,24.1,08.3,0000.0,0003.94,0009.30,0003.04
2021-12-12 14:58:00,,0819.6,5.00,0.00,22.4,21.6,00.0,31.4,24.1,08.4,0000.0,0003.94,0009.15,0003.04
2021-12-12 14:59:00,,0819.6,5.00,0.00,22.4,21.7,00.0,31.4,24.1,08.5,0000.0,0003.93,0009.20,0003.03
